| time (UTC) | temp F | wind direction | speed MPH | gust MPH | rain 1hr in | rain 24hr in | rain mn in | humidity % | barometer mb |
| 20260903151951 | 87 | 107 | 2.0 | 3.0 | 0.00 | 0.00 | 0.00 | 76 | 983.9 |
| 20260903151450 | 87 | 119 | 2.0 | 6.0 | 0.00 | 0.00 | 0.00 | 75 | 983.7 |
| 20260903150945 | 86 | 114 | 1.0 | 3.0 | 0.00 | 0.00 | 0.00 | 77 | 983.9 |
| 20260903150439 | 86 | 111 | 1.0 | 3.0 | 0.00 | 0.00 | 0.00 | 77 | 983.8 |
| 20260903145934 | 86 | 75 | 2.0 | 2.0 | 0.00 | 0.00 | 0.00 | 77 | 983.9 |
| 20260903145430 | 85 | 117 | 3.0 | 4.0 | 0.00 | 0.00 | 0.00 | 77 | 983.9 |
| 20260903144930 | 85 | 104 | 2.0 | 3.0 | 0.00 | 0.00 | 0.00 | 77 | 983.9 |
| 20260903144429 | 85 | 105 | 2.0 | 3.0 | 0.00 | 0.00 | 0.00 | 78 | 983.8 |
| 20260903143925 | 85 | 118 | 2.0 | 2.0 | 0.00 | 0.00 | 0.00 | 78 | 984.0 |
| 20260903143421 | 84 | 118 | 1.0 | 3.0 | 0.00 | 0.00 | 0.00 | 80 | 983.9 |
| 20260903142917 | 84 | 115 | 1.0 | 3.0 | 0.00 | 0.00 | 0.00 | 80 | 983.9 |
| 20260903142412 | 84 | 239 | 0.0 | 2.0 | 0.00 | 0.00 | 0.00 | 77 | 983.9 |
| 20260903141908 | 84 | 105 | 2.0 | 3.0 | 0.00 | 0.00 | 0.00 | 81 | 983.8 |
| 20260903141404 | 83 | 127 | 1.0 | 4.0 | 0.00 | 0.00 | 0.00 | 80 | 983.8 |
| 20260903140859 | 83 | 174 | 2.0 | 2.0 | 0.00 | 0.00 | 0.00 | 81 | 983.9 |
| 20260903140354 | 83 | 113 | 2.0 | 3.0 | 0.00 | 0.00 | 0.00 | 81 | 983.7 |
| 20260903135850 | 83 | 114 | 1.0 | 2.0 | 0.00 | 0.00 | 0.00 | 82 | 983.6 |
| 20260903135346 | 82 | 78 | 0.0 | 2.0 | 0.00 | 0.00 | 0.00 | 85 | 983.7 |
| 20260903134844 | 82 | 117 | 1.0 | 2.0 | 0.00 | 0.00 | 0.00 | 85 | 983.8 |
| 20260903134339 | 81 | 87 | 1.0 | 1.0 | 0.00 | 0.00 | 0.00 | 85 | 984.0 |
| 20260903133837 | 80 | 92 | 1.0 | 2.0 | 0.00 | 0.00 | 0.00 | 87 | 983.9 |
| 20260903133334 | 79 | 66 | 2.0 | 2.0 | 0.00 | 0.00 | 0.00 | 91 | 983.7 |
| 20260903132833 | 78 | 66 | 2.0 | 2.0 | 0.00 | 0.00 | 0.00 | 91 | 984.0 |
| 20260903132330 | 78 | 56 | 0.0 | 0.0 | 0.00 | 0.00 | 0.00 | 91 | 984.1 |
| 20260903131824 | 77 | 71 | 0.0 | 0.0 | 0.00 | 0.00 | 0.00 | 92 | 984.0 |
| 20260903131324 | 76 | 72 | 0.0 | 0.0 | 0.00 | 0.00 | 0.00 | 92 | 984.3 |
| 20260903130823 | 76 | 70 | 0.0 | 0.0 | 0.00 | 0.00 | 0.00 | 92 | 984.1 |
| 20260903130318 | 76 | 71 | 0.0 | 1.0 | 0.00 | 0.00 | 0.00 | 92 | 984.0 |
| 20260903125817 | 75 | 71 | 0.0 | 1.0 | 0.00 | 0.00 | 0.00 | 93 | 984.0 |
| 20260903125312 | 75 | 71 | 0.0 | 1.0 | 0.00 | 0.00 | 0.00 | 93 | 984.2 |
| 20260903124811 | 76 | 134 | 0.0 | 0.0 | 0.00 | 0.00 | 0.00 | 91 | 984.0 |
| 20260903124307 | 74 | 134 | 0.0 | 0.0 | 0.00 | 0.00 | 0.00 | 94 | 983.9 |
| 20260903123805 | 72 | 134 | 0.0 | 0.0 | 0.00 | 0.00 | 0.00 | 96 | 984.1 |
| 20260903123305 | 71 | 145 | 0.0 | 0.0 | 0.00 | 0.00 | 0.00 | 99 | 984.2 |
| 20260903122804 | 71 | 227 | 0.0 | 0.0 | 0.00 | 0.00 | 0.00 | 99 | 984.2 |
| 20260903122259 | 69 | 227 | 0.0 | 0.0 | 0.00 | 0.00 | 0.00 | 99 | 984.2 |
| 20260903121756 | 70 | 229 | 0.0 | 0.0 | 0.00 | 0.00 | 0.00 | 99 | 984.1 |
| 20260903121253 | 69 | 229 | 0.0 | 0.0 | 0.00 | 0.00 | 0.00 | 99 | 984.3 |
| 20260903120748 | 68 | 229 | 0.0 | 0.0 | 0.00 | 0.00 | 0.00 | 99 | 984.1 |
| 20260903120241 | 67 | 229 | 0.0 | 0.0 | 0.00 | 0.00 | 0.00 | 99 | 984.2 |
| 20260903115741 | 66 | 229 | 0.0 | 0.0 | 0.00 | 0.00 | 0.00 | 99 | 984.1 |
| 20260903115236 | 66 | 229 | 0.0 | 0.0 | 0.00 | 0.00 | 0.00 | 99 | 983.9 |
| 20260903114736 | 66 | 229 | 0.0 | 0.0 | 0.00 | 0.00 | 0.00 | 99 | 984.2 |
| 20260903114232 | 66 | 229 | 0.0 | 0.0 | 0.00 | 0.00 | 0.00 | 99 | 984.1 |
| 20260903113727 | 66 | 229 | 0.0 | 0.0 | 0.00 | 0.00 | 0.00 | 99 | 984.1 |
| 20260903113223 | 66 | 229 | 0.0 | 0.0 | 0.00 | 0.00 | 0.00 | 99 | 984.3 |
| 20260903112719 | 65 | 229 | 0.0 | 0.0 | 0.00 | 0.00 | 0.00 | 99 | 984.1 |
| 20260903112214 | 65 | 229 | 0.0 | 0.0 | 0.00 | 0.00 | 0.00 | 99 | 984.0 |
| 20260903111712 | 65 | 229 | 0.0 | 0.0 | 0.00 | 0.00 | 0.00 | 99 | 984.1 |
| 20260903111208 | 65 | 229 | 0.0 | 0.0 | 0.00 | 0.00 | 0.00 | 99 | 984.0 |
| 20260903110659 | 65 | 229 | 0.0 | 0.0 | 0.00 | 0.00 | 0.00 | 99 | 983.9 |
| 20260903110154 | 65 | 229 | 0.0 | 0.0 | 0.00 | 0.00 | 0.00 | 99 | 983.9 |
| 20260903105653 | 65 | 229 | 0.0 | 0.0 | 0.00 | 0.00 | 0.00 | 99 | 983.8 |
| 20260903105148 | 65 | 229 | 0.0 | 0.0 | 0.00 | 0.00 | 0.00 | 99 | 983.7 |
| 20260903104648 | 65 | 229 | 0.0 | 0.0 | 0.00 | 0.00 | 0.00 | 99 | 983.6 |
| 20260903104143 | 65 | 229 | 0.0 | 0.0 | 0.00 | 0.00 | 0.00 | 99 | 983.5 |
| 20260903103640 | 65 | 229 | 0.0 | 0.0 | 0.00 | 0.00 | 0.00 | 99 | 983.5 |
| 20260903103136 | 65 | 229 | 0.0 | 0.0 | 0.00 | 0.00 | 0.00 | 99 | 983.5 |
| 20260903102631 | 65 | 229 | 0.0 | 0.0 | 0.00 | 0.00 | 0.00 | 99 | 983.5 |
| 20260903102130 | 66 | 229 | 0.0 | 0.0 | 0.00 | 0.00 | 0.00 | 99 | 983.4 |
| 20260903101629 | 66 | 229 | 0.0 | 0.0 | 0.00 | 0.00 | 0.00 | 99 | 983.6 |
| 20260903101126 | 66 | 229 | 0.0 | 0.0 | 0.00 | 0.00 | 0.00 | 99 | 983.5 |
| 20260903100625 | 65 | 229 | 0.0 | 0.0 | 0.00 | 0.00 | 0.00 | 99 | 983.4 |
| 20260903100125 | 65 | 229 | 0.0 | 0.0 | 0.00 | 0.00 | 0.00 | 99 | 983.3 |
| 20260903095622 | 66 | 229 | 0.0 | 0.0 | 0.00 | 0.00 | 0.00 | 99 | 983.3 |
| 20260903095122 | 66 | 229 | 0.0 | 0.0 | 0.00 | 0.00 | 0.00 | 99 | 983.3 |
| 20260903094617 | 66 | 229 | 0.0 | 0.0 | 0.00 | 0.00 | 0.00 | 99 | 983.3 |
| 20260903094113 | 66 | 229 | 0.0 | 0.0 | 0.00 | 0.00 | 0.00 | 99 | 983.2 |
| 20260903093608 | 66 | 229 | 0.0 | 0.0 | 0.00 | 0.00 | 0.00 | 99 | 983.1 |
| 20260903093103 | 66 | 229 | 0.0 | 0.0 | 0.00 | 0.00 | 0.00 | 99 | 983.4 |
| 20260903092602 | 66 | 229 | 0.0 | 0.0 | 0.00 | 0.00 | 0.00 | 99 | 983.4 |
| 20260903092057 | 66 | 229 | 0.0 | 0.0 | 0.00 | 0.00 | 0.00 | 99 | 983.3 |
| 20260903091555 | 66 | 229 | 0.0 | 0.0 | 0.00 | 0.00 | 0.00 | 99 | 983.2 |
| 20260903091050 | 66 | 229 | 0.0 | 0.0 | 0.00 | 0.00 | 0.00 | 99 | 983.2 |
| 20260903090546 | 66 | 229 | 0.0 | 0.0 | 0.00 | 0.00 | 0.00 | 99 | 983.2 |
| 20260903090045 | 66 | 229 | 0.0 | 0.0 | 0.00 | 0.00 | 0.00 | 99 | 983.0 |
| 20260903085538 | 66 | 229 | 0.0 | 0.0 | 0.00 | 0.00 | 0.00 | 99 | 982.9 |
| 20260903085034 | 66 | 229 | 0.0 | 0.0 | 0.00 | 0.00 | 0.00 | 99 | 983.3 |
| 20260903084531 | 67 | 229 | 0.0 | 0.0 | 0.00 | 0.00 | 0.00 | 99 | 983.1 |
| 20260903084027 | 66 | 229 | 0.0 | 0.0 | 0.00 | 0.00 | 0.00 | 99 | 983.1 |
| 20260903083522 | 66 | 229 | 0.0 | 0.0 | 0.00 | 0.00 | 0.00 | 99 | 983.2 |
| 20260903083022 | 66 | 229 | 0.0 | 0.0 | 0.00 | 0.00 | 0.00 | 99 | 982.8 |
| 20260903082522 | 67 | 229 | 0.0 | 0.0 | 0.00 | 0.00 | 0.00 | 99 | 982.9 |
| 20260903082018 | 67 | 229 | 0.0 | 0.0 | 0.00 | 0.00 | 0.00 | 99 | 983.1 |
| 20260903081513 | 67 | 229 | 0.0 | 0.0 | 0.00 | 0.00 | 0.00 | 99 | 982.9 |
| 20260903081009 | 67 | 229 | 0.0 | 0.0 | 0.00 | 0.00 | 0.00 | 99 | 983.0 |
| 20260903080505 | 67 | 229 | 0.0 | 0.0 | 0.00 | 0.00 | 0.00 | 99 | 983.1 |
| 20260903080001 | 67 | 229 | 0.0 | 0.0 | 0.00 | 0.00 | 0.00 | 99 | 983.1 |
| 20260903075456 | 67 | 229 | 0.0 | 0.0 | 0.00 | 0.00 | 0.00 | 99 | 983.2 |
| 20260903074951 | 67 | 229 | 0.0 | 0.0 | 0.00 | 0.00 | 0.00 | 99 | 983.2 |
| 20260903074450 | 67 | 229 | 0.0 | 0.0 | 0.00 | 0.00 | 0.00 | 99 | 983.2 |
| 20260903073945 | 67 | 229 | 0.0 | 0.0 | 0.00 | 0.00 | 0.00 | 99 | 983.3 |
| 20260903073440 | 67 | 229 | 0.0 | 0.0 | 0.00 | 0.00 | 0.00 | 99 | 983.1 |
| 20260903072936 | 67 | 229 | 0.0 | 0.0 | 0.00 | 0.00 | 0.00 | 99 | 983.1 |
| 20260903072432 | 67 | 229 | 0.0 | 0.0 | 0.00 | 0.00 | 0.00 | 99 | 983.0 |
| 20260903071929 | 67 | 229 | 0.0 | 0.0 | 0.00 | 0.00 | 0.00 | 99 | 983.1 |
| 20260903071424 | 67 | 229 | 0.0 | 0.0 | 0.00 | 0.00 | 0.00 | 99 | 983.1 |
| 20260903070921 | 67 | 229 | 0.0 | 0.0 | 0.00 | 0.00 | 0.00 | 99 | 983.1 |
| 20260903070420 | 68 | 229 | 0.0 | 0.0 | 0.00 | 0.00 | 0.00 | 99 | 983.1 |
| 20260903065915 | 67 | 229 | 0.0 | 0.0 | 0.00 | 0.00 | 0.00 | 99 | 983.1 |
| 20260903065415 | 67 | 229 | 0.0 | 0.0 | 0.00 | 0.00 | 0.00 | 99 | 983.1 |
| 20260903064914 | 67 | 229 | 0.0 | 0.0 | 0.00 | 0.00 | 0.00 | 99 | 983.0 |
| 20260903064409 | 67 | 229 | 0.0 | 0.0 | 0.00 | 0.00 | 0.00 | 99 | 983.2 |
| 20260903063905 | 67 | 229 | 0.0 | 0.0 | 0.00 | 0.00 | 0.00 | 99 | 982.9 |
| 20260903063400 | 67 | 229 | 0.0 | 0.0 | 0.00 | 0.00 | 0.00 | 99 | 983.1 |
| 20260903062855 | 67 | 229 | 0.0 | 0.0 | 0.00 | 0.00 | 0.00 | 99 | 983.1 |
| 20260903062349 | 67 | 229 | 0.0 | 0.0 | 0.00 | 0.00 | 0.00 | 99 | 983.2 |
| 20260903061846 | 68 | 229 | 0.0 | 0.0 | 0.00 | 0.00 | 0.00 | 99 | 983.3 |
| 20260903061345 | 68 | 229 | 0.0 | 0.0 | 0.00 | 0.00 | 0.00 | 99 | 983.2 |
| 20260903060841 | 67 | 229 | 0.0 | 0.0 | 0.00 | 0.00 | 0.00 | 99 | 983.1 |
| 20260903060340 | 68 | 229 | 0.0 | 0.0 | 0.00 | 0.00 | 0.00 | 99 | 983.2 |
| 20260903055838 | 67 | 229 | 0.0 | 0.0 | 0.00 | 0.00 | 0.00 | 99 | 983.1 |
| 20260903055337 | 68 | 229 | 0.0 | 0.0 | 0.00 | 0.00 | 0.00 | 99 | 983.4 |
| 20260903054832 | 68 | 229 | 0.0 | 0.0 | 0.00 | 0.00 | 0.00 | 99 | 983.2 |
| 20260903054331 | 68 | 229 | 0.0 | 0.0 | 0.00 | 0.00 | 0.00 | 99 | 983.1 |
| 20260903053828 | 68 | 229 | 0.0 | 0.0 | 0.00 | 0.00 | 0.00 | 99 | 983.1 |
| 20260903053323 | 68 | 229 | 0.0 | 0.0 | 0.00 | 0.00 | 0.00 | 99 | 982.8 |
| 20260903052819 | 68 | 229 | 0.0 | 0.0 | 0.00 | 0.00 | 0.00 | 99 | 982.8 |
| 20260903052314 | 68 | 229 | 0.0 | 0.0 | 0.00 | 0.00 | 0.00 | 99 | 982.8 |
| 20260903051810 | 68 | 229 | 0.0 | 0.0 | 0.00 | 0.00 | 0.00 | 99 | 982.7 |
| 20260903051305 | 68 | 229 | 0.0 | 0.0 | 0.00 | 0.00 | 0.00 | 99 | 982.6 |
| 20260903050800 | 68 | 229 | 0.0 | 0.0 | 0.00 | 0.00 | 0.00 | 99 | 983.0 |
| 20260903050259 | 68 | 229 | 0.0 | 0.0 | 0.00 | 0.00 | 0.00 | 99 | 982.8 |
| 20260903045754 | 68 | 229 | 0.0 | 0.0 | 0.00 | 0.00 | 0.00 | 99 | 982.8 |
| 20260903045250 | 68 | 229 | 0.0 | 0.0 | 0.00 | 0.00 | 0.00 | 99 | 982.9 |
| 20260903044746 | 68 | 229 | 0.0 | 0.0 | 0.00 | 0.00 | 0.00 | 99 | 982.9 |
| 20260903044241 | 69 | 229 | 0.0 | 0.0 | 0.00 | 0.00 | 0.00 | 99 | 982.8 |
| 20260903043738 | 68 | 229 | 0.0 | 0.0 | 0.00 | 0.00 | 0.00 | 99 | 982.8 |
| 20260903043238 | 68 | 229 | 0.0 | 0.0 | 0.00 | 0.00 | 0.00 | 99 | 982.8 |
| 20260903042737 | 68 | 229 | 0.0 | 0.0 | 0.00 | 0.00 | 0.00 | 99 | 982.7 |
| 20260903042232 | 69 | 229 | 0.0 | 0.0 | 0.00 | 0.00 | 0.00 | 99 | 982.9 |
| 20260903041728 | 69 | 229 | 0.0 | 0.0 | 0.00 | 0.00 | 0.00 | 99 | 983.0 |
| 20260903041225 | 69 | 229 | 0.0 | 0.0 | 0.00 | 0.00 | 0.00 | 99 | 982.8 |
| 20260903040724 | 68 | 229 | 0.0 | 0.0 | 0.00 | 0.00 | 0.00 | 99 | 982.8 |
| 20260903040219 | 68 | 229 | 0.0 | 0.0 | 0.00 | 0.00 | 0.00 | 99 | 983.0 |
| 20260903035715 | 68 | 229 | 0.0 | 0.0 | 0.00 | 0.00 | 0.00 | 99 | 982.9 |
| 20260903035211 | 69 | 229 | 0.0 | 0.0 | 0.00 | 0.00 | 0.00 | 99 | 983.1 |
| 20260903034711 | 69 | 229 | 0.0 | 0.0 | 0.00 | 0.00 | 0.00 | 99 | 983.3 |
| 20260903034206 | 69 | 229 | 0.0 | 0.0 | 0.00 | 0.00 | 0.00 | 99 | 983.3 |
| 20260903033701 | 68 | 229 | 0.0 | 0.0 | 0.00 | 0.00 | 0.00 | 99 | 983.2 |
| 20260903033156 | 69 | 229 | 0.0 | 0.0 | 0.00 | 0.00 | 0.00 | 99 | 983.2 |
| 20260903032651 | 69 | 229 | 0.0 | 0.0 | 0.00 | 0.00 | 0.00 | 99 | 983.2 |
| 20260903032146 | 69 | 229 | 0.0 | 0.0 | 0.00 | 0.00 | 0.00 | 99 | 983.2 |
| 20260903031642 | 69 | 229 | 0.0 | 0.0 | 0.00 | 0.00 | 0.00 | 99 | 983.3 |
| 20260903031141 | 69 | 229 | 0.0 | 0.0 | 0.00 | 0.00 | 0.00 | 99 | 983.3 |
| 20260903030637 | 69 | 229 | 0.0 | 0.0 | 0.00 | 0.00 | 0.00 | 99 | 983.3 |
| 20260903030133 | 69 | 229 | 0.0 | 0.0 | 0.00 | 0.00 | 0.00 | 99 | 983.2 |
| 20260903025628 | 69 | 229 | 0.0 | 0.0 | 0.00 | 0.00 | 0.00 | 99 | 983.4 |
| 20260903025124 | 69 | 229 | 0.0 | 0.0 | 0.00 | 0.00 | 0.00 | 99 | 983.4 |
| 20260903024619 | 70 | 229 | 0.0 | 0.0 | 0.00 | 0.00 | 0.00 | 99 | 983.3 |
| 20260903024118 | 70 | 229 | 0.0 | 0.0 | 0.00 | 0.00 | 0.00 | 99 | 983.3 |
| 20260903023614 | 69 | 229 | 0.0 | 0.0 | 0.00 | 0.00 | 0.00 | 99 | 983.3 |
| 20260903023114 | 69 | 229 | 0.0 | 0.0 | 0.00 | 0.00 | 0.00 | 99 | 983.5 |
| 20260903022615 | 70 | 229 | 0.0 | 0.0 | 0.00 | 0.00 | 0.00 | 99 | 983.5 |
| 20260903022114 | 70 | 229 | 0.0 | 0.0 | 0.00 | 0.00 | 0.00 | 99 | 983.4 |
| 20260903021608 | 69 | 229 | 0.0 | 0.0 | 0.00 | 0.00 | 0.00 | 99 | 983.6 |
| 20260903021102 | 70 | 229 | 0.0 | 0.0 | 0.00 | 0.00 | 0.00 | 99 | 983.6 |
| 20260903020558 | 70 | 229 | 0.0 | 0.0 | 0.00 | 0.00 | 0.00 | 99 | 983.6 |
| 20260903020058 | 70 | 229 | 0.0 | 0.0 | 0.00 | 0.00 | 0.00 | 99 | 983.6 |
| 20260903015554 | 70 | 229 | 0.0 | 0.0 | 0.00 | 0.00 | 0.00 | 99 | 983.5 |
| 20260903015049 | 70 | 229 | 0.0 | 0.0 | 0.00 | 0.00 | 0.00 | 99 | 983.5 |
| 20260903014549 | 70 | 229 | 0.0 | 0.0 | 0.00 | 0.00 | 0.00 | 99 | 983.3 |
| 20260903014043 | 71 | 229 | 0.0 | 0.0 | 0.00 | 0.00 | 0.00 | 99 | 983.4 |
| 20260903013543 | 71 | 229 | 0.0 | 0.0 | 0.00 | 0.00 | 0.00 | 99 | 983.4 |
| 20260903013038 | 71 | 229 | 0.0 | 0.0 | 0.00 | 0.00 | 0.00 | 99 | 983.2 |
| 20260903012531 | 71 | 229 | 0.0 | 0.0 | 0.00 | 0.00 | 0.00 | 99 | 983.2 |
| 20260903012031 | 71 | 229 | 0.0 | 0.0 | 0.00 | 0.00 | 0.00 | 99 | 983.5 |
| 20260903011530 | 71 | 229 | 0.0 | 0.0 | 0.00 | 0.00 | 0.00 | 99 | 983.4 |
| 20260903011025 | 72 | 229 | 0.0 | 0.0 | 0.00 | 0.00 | 0.00 | 99 | 983.5 |
| 20260903010521 | 72 | 229 | 0.0 | 0.0 | 0.00 | 0.00 | 0.00 | 99 | 983.4 |
| 20260903010019 | 72 | 229 | 0.0 | 0.0 | 0.00 | 0.00 | 0.00 | 99 | 983.4 |
| 20260903005514 | 72 | 229 | 0.0 | 0.0 | 0.00 | 0.00 | 0.00 | 99 | 983.2 |
| 20260903005010 | 72 | 229 | 0.0 | 0.0 | 0.00 | 0.00 | 0.00 | 99 | 983.3 |
| 20260903004509 | 72 | 229 | 0.0 | 0.0 | 0.00 | 0.00 | 0.00 | 99 | 983.1 |
| 20260903004005 | 73 | 229 | 0.0 | 0.0 | 0.00 | 0.00 | 0.00 | 99 | 983.3 |
| 20260903003501 | 73 | 229 | 0.0 | 0.0 | 0.00 | 0.00 | 0.00 | 99 | 983.3 |
| 20260903002955 | 73 | 229 | 0.0 | 0.0 | 0.00 | 0.00 | 0.00 | 99 | 983.0 |
| 20260903002456 | 73 | 229 | 0.0 | 0.0 | 0.00 | 0.00 | 0.00 | 98 | 983.0 |
| 20260903001955 | 74 | 229 | 0.0 | 0.0 | 0.00 | 0.00 | 0.00 | 98 | 983.2 |
| 20260903001450 | 74 | 229 | 0.0 | 0.0 | 0.00 | 0.00 | 0.00 | 97 | 983.1 |
| 20260903000949 | 74 | 229 | 0.0 | 0.0 | 0.00 | 0.00 | 0.00 | 97 | 982.8 |
| 20260903000446 | 74 | 229 | 0.0 | 0.0 | 0.00 | 0.00 | 0.00 | 96 | 982.7 |
| 20260902235943 | 75 | 229 | 0.0 | 0.0 | 0.00 | 0.00 | 0.00 | 97 | 982.8 |
| 20260902235438 | 75 | 229 | 0.0 | 0.0 | 0.00 | 0.00 | 0.00 | 96 | 982.6 |
| 20260902234938 | 76 | 229 | 0.0 | 0.0 | 0.00 | 0.00 | 0.00 | 95 | 982.8 |
| 20260902234433 | 76 | 229 | 0.0 | 0.0 | 0.00 | 0.00 | 0.00 | 94 | 982.7 |
| 20260902233932 | 76 | 229 | 0.0 | 0.0 | 0.00 | 0.00 | 0.00 | 94 | 982.9 |
| 20260902233426 | 77 | 229 | 0.0 | 0.0 | 0.00 | 0.00 | 0.00 | 93 | 982.6 |
| 20260902232926 | 77 | 229 | 0.0 | 0.0 | 0.00 | 0.00 | 0.00 | 91 | 982.7 |
| 20260902232421 | 77 | 229 | 0.0 | 0.0 | 0.00 | 0.00 | 0.00 | 92 | 982.6 |
| 20260902231920 | 78 | 229 | 0.0 | 0.0 | 0.00 | 0.00 | 0.00 | 91 | 982.8 |
| 20260902231415 | 78 | 229 | 0.0 | 0.0 | 0.00 | 0.00 | 0.00 | 91 | 982.7 |
| 20260902230911 | 78 | 229 | 0.0 | 0.0 | 0.00 | 0.00 | 0.00 | 91 | 982.8 |
| 20260902230410 | 78 | 229 | 0.0 | 0.0 | 0.00 | 0.00 | 0.00 | 90 | 982.5 |
| 20260902225909 | 79 | 229 | 0.0 | 1.0 | 0.00 | 0.00 | 0.00 | 90 | 982.7 |
| 20260902225405 | 79 | 229 | 0.0 | 0.0 | 0.00 | 0.00 | 0.00 | 89 | 982.7 |
| 20260902224903 | 80 | 229 | 0.0 | 0.0 | 0.00 | 0.00 | 0.00 | 88 | 982.8 |
| 20260902224357 | 80 | 229 | 0.0 | 0.0 | 0.00 | 0.00 | 0.00 | 88 | 982.8 |
| 20260902223855 | 80 | 229 | 0.0 | 0.0 | 0.00 | 0.00 | 0.00 | 87 | 982.9 |
| 20260902223354 | 80 | 230 | 0.0 | 0.0 | 0.00 | 0.00 | 0.00 | 87 | 982.9 |
| 20260902222849 | 80 | 228 | 1.0 | 1.0 | 0.00 | 0.00 | 0.00 | 86 | 982.8 |
| 20260902222347 | 81 | 229 | 1.0 | 1.0 | 0.00 | 0.00 | 0.00 | 86 | 983.0 |
| 20260902221842 | 81 | 246 | 1.0 | 2.0 | 0.00 | 0.00 | 0.00 | 85 | 982.8 |
| 20260902221341 | 82 | 239 | 1.0 | 2.0 | 0.00 | 0.00 | 0.00 | 84 | 982.8 |
| 20260902220837 | 85 | 252 | 1.0 | 2.0 | 0.00 | 0.00 | 0.00 | 80 | 982.8 |
| 20260902220336 | 85 | 253 | 2.0 | 3.0 | 0.00 | 0.00 | 0.00 | 78 | 982.8 |
| 20260902215832 | 87 | 241 | 2.0 | 2.0 | 0.00 | 0.00 | 0.00 | 77 | 983.0 |
| 20260902215332 | 86 | 201 | 0.0 | 1.0 | 0.00 | 0.00 | 0.00 | 67 | 982.8 |
| 20260902214829 | 85 | 241 | 1.0 | 1.0 | 0.00 | 0.00 | 0.00 | 81 | 982.9 |
| 20260902214327 | 87 | 244 | 2.0 | 2.0 | 0.00 | 0.00 | 0.00 | 79 | 982.8 |
| 20260902213822 | 88 | 244 | 1.0 | 2.0 | 0.00 | 0.00 | 0.00 | 75 | 982.7 |
| 20260902213318 | 87 | 233 | 0.0 | 2.0 | 0.00 | 0.00 | 0.00 | 73 | 982.9 |
| 20260902212816 | 89 | 252 | 1.0 | 1.0 | 0.00 | 0.00 | 0.00 | 73 | 983.0 |
| 20260902212314 | 88 | 220 | 0.0 | 2.0 | 0.00 | 0.00 | 0.00 | 72 | 983.0 |
| 20260902211809 | 89 | 342 | 0.0 | 1.0 | 0.00 | 0.00 | 0.00 | 64 | 983.1 |
| 20260902211306 | 89 | 271 | 1.0 | 2.0 | 0.00 | 0.00 | 0.00 | 69 | 983.1 |
| 20260902210805 | 90 | 213 | 2.0 | 2.0 | 0.00 | 0.00 | 0.00 | 69 | 982.9 |
| 20260902210300 | 90 | 204 | 2.0 | 2.0 | 0.00 | 0.00 | 0.00 | 70 | 983.1 |
| 20260902205758 | 89 | 246 | 1.0 | 1.0 | 0.00 | 0.00 | 0.00 | 71 | 983.0 |
| 20260902205253 | 89 | 118 | 1.0 | 1.0 | 0.00 | 0.00 | 0.00 | 67 | 983.1 |
| 20260902204749 | 91 | 216 | 0.0 | 2.0 | 0.00 | 0.00 | 0.00 | 61 | 983.3 |
| 20260902204244 | 91 | 210 | 0.0 | 2.0 | 0.00 | 0.00 | 0.00 | 60 | 983.3 |
| 20260902203744 | 91 | 80 | 0.0 | 2.0 | 0.00 | 0.00 | 0.00 | 61 | 983.4 |
| 20260902203244 | 91 | 273 | 0.0 | 1.0 | 0.00 | 0.00 | 0.00 | 62 | 983.4 |
| 20260902202739 | 90 | 80 | 1.0 | 3.0 | 0.00 | 0.00 | 0.00 | 62 | 983.3 |
| 20260902202236 | 91 | 249 | 0.0 | 1.0 | 0.00 | 0.00 | 0.00 | 66 | 983.2 |
| 20260902201732 | 91 | 222 | 0.0 | 1.0 | 0.00 | 0.00 | 0.00 | 64 | 983.3 |
| 20260902201231 | 90 | 246 | 0.0 | 1.0 | 0.00 | 0.00 | 0.00 | 62 | 983.4 |
| 20260902200726 | 91 | 133 | 3.0 | 4.0 | 0.00 | 0.00 | 0.00 | 64 | 983.4 |
| 20260902200222 | 92 | 91 | 2.0 | 3.0 | 0.00 | 0.00 | 0.00 | 64 | 983.5 |
| 20260902195718 | 91 | 7 | 1.0 | 2.0 | 0.00 | 0.00 | 0.00 | 62 | 983.4 |
| 20260902195217 | 91 | 308 | 0.0 | 1.0 | 0.00 | 0.00 | 0.00 | 63 | 983.4 |
| 20260902194716 | 89 | 266 | 2.0 | 4.0 | 0.00 | 0.00 | 0.00 | 66 | 983.5 |
| 20260902194211 | 91 | 87 | 2.0 | 3.0 | 0.00 | 0.00 | 0.00 | 63 | 983.5 |
| 20260902193707 | 91 | 229 | 1.0 | 2.0 | 0.00 | 0.00 | 0.00 | 63 | 983.6 |
| 20260902193202 | 91 | 341 | 1.0 | 2.0 | 0.00 | 0.00 | 0.00 | 64 | 983.8 |
| 20260902192701 | 90 | 186 | 1.0 | 2.0 | 0.00 | 0.00 | 0.00 | 63 | 983.7 |
| 20260902192201 | 91 | 249 | 1.0 | 2.0 | 0.00 | 0.00 | 0.00 | 63 | 983.7 |
| 20260902191655 | 90 | 119 | 1.0 | 4.0 | 0.00 | 0.00 | 0.00 | 64 | 983.8 |
| 20260902191155 | 90 | 117 | 3.0 | 4.0 | 0.00 | 0.00 | 0.00 | 65 | 983.7 |
| 20260902190650 | 90 | 101 | 2.0 | 4.0 | 0.00 | 0.00 | 0.00 | 62 | 984.0 |
| 20260902190145 | 90 | 108 | 3.0 | 3.0 | 0.00 | 0.00 | 0.00 | 66 | 983.9 |
| 20260902185641 | 91 | 99 | 3.0 | 3.0 | 0.00 | 0.00 | 0.00 | 66 | 984.0 |
| 20260902185137 | 89 | 201 | 0.0 | 1.0 | 0.00 | 0.00 | 0.00 | 65 | 984.0 |
| 20260902184632 | 90 | 218 | 0.0 | 6.0 | 0.00 | 0.00 | 0.00 | 66 | 984.1 |
| 20260902184128 | 89 | 92 | 2.0 | 3.0 | 0.00 | 0.00 | 0.00 | 66 | 984.0 |
| 20260902183624 | 91 | 131 | 1.0 | 2.0 | 0.00 | 0.00 | 0.00 | 65 | 984.2 |
| 20260902183120 | 91 | 270 | 2.0 | 4.0 | 0.00 | 0.00 | 0.00 | 62 | 984.3 |
| 20260902182615 | 90 | 112 | 0.0 | 3.0 | 0.00 | 0.00 | 0.00 | 68 | 984.1 |
| 20260902182112 | 90 | 237 | 1.0 | 4.0 | 0.00 | 0.00 | 0.00 | 66 | 984.1 |
| 20260902181608 | 89 | 115 | 3.0 | 4.0 | 0.00 | 0.00 | 0.00 | 66 | 984.2 |
| 20260902181107 | 90 | 30 | 0.0 | 3.0 | 0.00 | 0.00 | 0.00 | 68 | 984.1 |
| 20260902180606 | 90 | 311 | 1.0 | 7.0 | 0.00 | 0.00 | 0.00 | 70 | 984.4 |
| 20260902175602 | 91 | 153 | 3.0 | 4.0 | 0.00 | 0.00 | 0.00 | 64 | 984.3 |
| 20260902175058 | 90 | 229 | 2.0 | 3.0 | 0.00 | 0.00 | 0.00 | 66 | 984.3 |
| 20260902174554 | 89 | 62 | 2.0 | 3.0 | 0.00 | 0.00 | 0.00 | 68 | 984.3 |
| 20260902174049 | 89 | 80 | 1.0 | 2.0 | 0.00 | 0.00 | 0.00 | 70 | 984.5 |
| 20260902173544 | 89 | 80 | 1.0 | 3.0 | 0.00 | 0.00 | 0.00 | 70 | 984.6 |
| 20260902173039 | 87 | 190 | 0.0 | 4.0 | 0.00 | 0.00 | 0.00 | 71 | 984.8 |
| 20260902172538 | 87 | 117 | 1.0 | 2.0 | 0.00 | 0.00 | 0.00 | 70 | 984.8 |
| 20260902172034 | 86 | 194 | 2.0 | 2.0 | 0.00 | 0.00 | 0.00 | 73 | 984.8 |
| 20260902171529 | 87 | 158 | 2.0 | 3.0 | 0.00 | 0.00 | 0.00 | 73 | 984.8 |
| 20260902171025 | 87 | 267 | 0.0 | 1.0 | 0.00 | 0.00 | 0.00 | 71 | 984.9 |
| 20260902170520 | 88 | 214 | 1.0 | 4.0 | 0.00 | 0.00 | 0.00 | 69 | 985.0 |
| 20260902170017 | 89 | 352 | 2.0 | 6.0 | 0.00 | 0.00 | 0.00 | 70 | 985.0 |
| 20260902165516 | 88 | 8 | 1.0 | 6.0 | 0.00 | 0.00 | 0.00 | 70 | 984.9 |
| 20260902165015 | 89 | 209 | 2.0 | 4.0 | 0.00 | 0.00 | 0.00 | 69 | 985.1 |
| 20260902164511 | 89 | 68 | 2.0 | 3.0 | 0.00 | 0.00 | 0.00 | 71 | 985.0 |
| 20260902164009 | 88 | 244 | 2.0 | 3.0 | 0.00 | 0.00 | 0.00 | 70 | 985.2 |
| 20260902163506 | 89 | 174 | 3.0 | 3.0 | 0.00 | 0.00 | 0.00 | 68 | 985.3 |
| 20260902163003 | 88 | 115 | 1.0 | 6.0 | 0.00 | 0.00 | 0.00 | 71 | 985.3 |
| 20260902162458 | 88 | 115 | 3.0 | 6.0 | 0.00 | 0.00 | 0.00 | 70 | 985.2 |
| 20260902161958 | 89 | 2 | 1.0 | 6.0 | 0.00 | 0.00 | 0.00 | 71 | 985.4 |
| 20260902161454 | 88 | 244 | 0.0 | 2.0 | 0.00 | 0.00 | 0.00 | 71 | 985.5 |
| 20260902160949 | 88 | 183 | 3.0 | 4.0 | 0.00 | 0.00 | 0.00 | 71 | 985.3 |
| 20260902160445 | 87 | 115 | 2.0 | 6.0 | 0.00 | 0.00 | 0.00 | 71 | 985.4 |
| 20260902155942 | 87 | 101 | 3.0 | 4.0 | 0.00 | 0.00 | 0.00 | 72 | 985.6 |
| 20260902155438 | 87 | 114 | 2.0 | 4.0 | 0.00 | 0.00 | 0.00 | 72 | 985.5 |
| 20260902154932 | 88 | 115 | 3.0 | 6.0 | 0.00 | 0.00 | 0.00 | 73 | 985.6 |
| 20260902154428 | 88 | 122 | 4.0 | 4.0 | 0.00 | 0.00 | 0.00 | 77 | 985.6 |
| 20260902153927 | 89 | 118 | 2.0 | 3.0 | 0.00 | 0.00 | 0.00 | 73 | 985.7 |
| 20260902153426 | 87 | 302 | 2.0 | 2.0 | 0.00 | 0.00 | 0.00 | 75 | 985.7 |
| 20260902152921 | 86 | 129 | 1.0 | 4.0 | 0.00 | 0.00 | 0.00 | 73 | 985.5 |